Powrót do katalogu

STARLINK-37172

AktywnyŁącznośćSSO
NORAD 68395·PAYLOAD·🇺🇸 United States

Wystrzelony Mar 26, 2026 z Vandenberg Space Force Base

Loading…

Następne Przeloty (najbliższe 24 godziny)

TLE

ŚwieżeSource: CelesTrak SupGP

Epoka: Sep 14, 2026, 22:47 UTC

1 68395C 26063R   26257.94979167 -.00019612  00000+0 -60874-3 0  2577
2 68395  97.2863  38.8408 0001021  92.0809 310.9803 15.33452804    11

Śledź STARLINK-37172 w czasie rzeczywistym z AllMySat

Download on the App Store